sat.trackr.live / text

‹ back to catalog

STARLINK-5085

NORAD 55392 · 2023-014B

PAYLOAD ACTIVE UNKNOWN

§ Identity

Operator
Country
US
Launch date
2023-01-31
Launch site
AFWTR
Launch vehicle
Mass (kg)
RCS (m²)

Purposes: comms

External: N2YO · Heavens-Above · Gunter

§ Orbital elements

Epoch: 2026-09-20T22:00:03.000096Z

Period
95.71 min
Inclination
69.9996°
Eccentricity
0.0000609
Mean motion
15.04481319 rev/d
Perigee alt
552.7 km
Apogee alt
553.5 km
Semi-major
6,931.2 km
B*
8.2274e-3
RAAN
272.0609°
Arg perigee
291.0607°
Mean anomaly
146.8010°
Rev number
576

§ Raw data

STARLINK-50851 55392U 23014B   26263.91670139  .00117208  00000+0  82274-2 0  99922 55392  69.9996 272.0609 0000609 291.0607 146.8010 15.04481319  5764

JSON: /api/v1/satellites/55392 · /tle

For live sub-satellite position, see the globe view (requires WebGL).

§ Visibility from observer

Set your observer location to see the next 7 days of passes ≥ 10°. The values pass through the URL so the page stays shareable.

No JS? Fill the form by hand. The geolocation button needs JavaScript.